Regional Weather Roundup
Issued by NWS

Home | Current Version | Previous Version | Text Only | Print | Product List | Glossary On
Versions: 1 2 3 4 5 6 7 8 9 10 11 12 13 14 15 16 17 18 19 20 21 22 23 24 25 26 27 28 29 30 31 32 33 34 35 36 37 38 39 40 41 42 43 44 45 46 47 48 49
000
ASUS43 KDMX 220807
RWRIA

WEATHER ROUNDUP FOR IOWA
NATIONAL WEATHER SERVICE DES MOINES IA
300 AM CDT MON SEP 22 2014

NOTE: "FAIR" INDICATES FEW OR NO CLOUDS BELOW 12,000 FEET WITH NO
SIGNIFICANT WEATHER AND/OR OBSTRUCTIONS TO VISIBILITY.

* - THESE STATIONS ARE NOT NWS STATIONS...THUS NOT UNDER NWS
QUALITY CONTROL.  THEY ALSO DO NOT REPORT WEATHER SUCH
AS PRECIPITATION OR FOG.

IAZ001>003-012>014-020>022-031>034-043>046-220900-
   NORTHWEST IOWA

CITY           SKY/WX    TMP DP  RH WIND       PRES   REMARKS
CARROLL *      CLEAR     45  43  93 CALM      30.27F
CHEROKEE *     PTCLDY    45  45 100 CALM      30.28S
DENISON *      CLEAR     45  45 100 CALM      30.27S
LE MARS *        N/A     45  45 100 CALM      30.29S
ORANGE CITY *  CLEAR     50  45  81 CALM      30.28S
SHELDON *      CLEAR     41  41 100 CALM      30.26F
SIOUX CITY     CLEAR     47  45  93 CALM      30.29S
SPENCER        CLEAR     43  41  93 CALM      30.27F
STORM LAKE *   CLEAR     48  48 100 CALM      30.28S
$$

IAZ055>058-069>071-079>083-090>094-220900-
   SOUTHWEST IOWA

CITY           SKY/WX    TMP DP  RH WIND       PRES   REMARKS
ATLANTIC *     CLEAR     46  45  93 CALM      30.28S
AUDUBON *      CLEAR     45  39  81 CALM      30.29S
CLARINDA *     CLEAR     45  45 100 CALM      30.30S FOG
COUNCIL BLFS * CLEAR     50  50 100 CALM      30.28S
CRESTON *      CLEAR     48  46  93 CALM      30.27S
HARLAN  *      CLEAR     45  45 100 CALM      30.32S
LAMONI         CLEAR     50  47  89 NW5       30.26S
RED OAK *      CLEAR     46  46 100 CALM      30.29S
SHENANDOAH *   CLEAR     46  46 100 CALM      30.30S
$$

IAZ047>049-059>061-072>074-084-220900-
   CENTRAL IOWA

CITY           SKY/WX    TMP DP  RH WIND       PRES   REMARKS
AMES           CLEAR     47  46  97 CALM      30.26S
ANKENY *       CLEAR     46  46 100 CALM      30.26S
CHARITON *     CLEAR     48  46  93 NW6       30.26R
DES MOINES     CLEAR     52  47  83 N3        30.26S
GRINNELL*      CLEAR     46  45  93 NW5       30.25F
KNOXVILLE *    CLEAR     48  46  93 NW5       30.24S
MARSHALLTOWN   CLEAR     44  43  96 W6        30.25S
PELLA *        CLEAR     48  48 100 N3        30.26S
PERRY *          N/A     46  46 100 W5        30.26S
$$

IAZ004>006-015-016-023>025-035-036-220900-
   NORTH CENTRAL IOWA

CITY           SKY/WX    TMP DP  RH WIND       PRES   REMARKS
ALGONA *       CLEAR     46  46 100 NW5       30.26S
CLARION *        N/A     43  43 100 CALM      30.26S
ESTHERVILLE    CLEAR     43  42  97 W7        30.26S
FORT DODGE *   MOCLDY    45  43  93 CALM      30.27S VSB 1/2
MASON CITY     CLEAR     47  46  97 N3        30.27S
FOREST CITY *  CLEAR     46  46 100 CALM      30.26S
IOWA FALLS *     N/A     46  45  93 NW3       30.26S
$$

IAZ007>011-017>019-026>030-037>042-050>054-066-220900-
   NORTHEAST IOWA

CITY           SKY/WX    TMP DP  RH WIND       PRES   REMARKS
CEDAR RAPIDS   CLEAR     45  44  97 NW7       30.23R
CHARLES CITY * CLEAR     45  45 100 W5        30.25S
CLINTON *      CLEAR     45  43  93 N8        30.24S
DECORAH *      CLEAR     45  43  93 CALM      30.23S
DUBUQUE        CLEAR     45  42  89 NE3       30.22S
MONTICELLO *   CLEAR     43  43 100 CALM      30.23R
OELWEIN *      CLEAR     43  41  93 CALM      30.24S
WATERLOO       CLEAR     45  44  97 CALM      30.24R
$$

IAZ064-065-067-068-078-220900-
   EAST CENTRAL IOWA

CITY           SKY/WX    TMP DP  RH WIND       PRES   REMARKS
DAVENPORT      CLEAR     45  41  86 N7        30.22R
IOWA CITY        N/A     47  45  93 CALM      30.25R
MT. PLEASANT * CLEAR     52  46  82 NW6       30.23R
MUSCATINE *    CLEAR     48  45  87 CALM      30.23R
QUAD CITIES    CLEAR     48  44  86 CALM      30.22R
$$

IAZ062-063-075>077-085>089-095>099-220900-
   SOUTHEAST IOWA

CITY           SKY/WX    TMP DP  RH WIND       PRES   REMARKS
BURLINGTON     CLEAR     50  48  93 N6        30.21R
FAIRFIELD *    CLEAR     48  45  87 NW6       30.24R
FORT MADISON * CLEAR     50  48  93 CALM      30.22S
KEOKUK *       CLEAR     52  48  87 N6        30.21S
OSKALOOSA *      N/A     46  45  93 N6        30.25S
CENTERVILLE *  CLEAR     48  48 100 NW5       30.26R
OTTUMWA        CLEAR     48  46  93 NW7       30.24R
WASHINGTON *   CLEAR     48  48 100 NW6       30.23S
$$

ABBREVIATIONS USED IN REMARKS
   TC - TEMPERATURES IN CELSIUS
  WCI - WIND CHILL INDEX
   HX - HEAT INDEX
  VSB - VISIBILITY
$$



USA.gov is the U.S. government's official web portal to all federal, state and local government web resources and services.